Location: Bonningues
(50.7927°N, 2.0150°E)
Time: 04:08:04
(UTC+00:00)

ERS-1 Rocket - Pass Details

Date: 08 August 2020
Orbit: 753 x 757 km, 98.5° (Epoch: 23 September)

Event Time Altitude Azimuth Distance (km) Brightness Sun altitude
Exits shadow 21:36:09 21° 180° (S) 1,635 4.2 -16.6°
Maximum altitude 21:39:27 65° 258° (WSW) 832 3.2 -16.9°
Drops below altitude 10° 21:44:28 10° 340° (NNW) 2,293 6.7 -17.3°
Sets 21:46:48 0° 344° (NNW) 3,222 7.7 -17.5°
